Location: Menard
(37.9101°N, 89.8398°W)
Time: 12:03:18
(UTC+00:00)

ARIANE 6 FM1 Upper Stage - Visible Passes

Search period start: 10 October 2024 00:00
Search period end: 20 October 2024 00:00
Orbit: 563 x 594 km, 62.0° (Epoch: 09 October)

Date Brightness Start Highest point End Pass type
(mag) Time Alt. Az. Time Alt. Az. Time Alt. Az.
17 Oct 5.0 01:05:35 10° N 01:06:41 13° NNE 01:06:41 13° NNE visible
18 Oct 4.7 01:09:15 10° N 01:11:00 18° NNE 01:11:00 18° NNE visible
19 Oct 4.3 01:13:08 10° NNW 01:15:25 25° N 01:15:25 25° N visible
